Temperature
10 11 11 11 11 11 11 11 11 11 11 11 11 11 11 11 11 11 11 11 11 11 11 11 11 11 11 11 11 11 11 11 11 11 11 11 11 11 11 10 10 10 10
10 10 10 10 10 10 10 11 10 11 11 11 11 11 11 11 11 11 11 11 11 11 11 11 11 11 11 11 11 11 11 11 11 11 11 10 10 10 10 10 10 10 10
9 9 9 9 9 10 10 10 10 10 10 10 10 11 11 11 11 11 11 11 11 11 11 11 11 11 11 10 11 11 11 11 11 10 10 10 10 10 10 10 10 10 10
9 9 9 9 9 9 9 9 9 10 10 10 10 10 10 10 10 10 10 10 10 10 10 10 10 10 10 10 10 10 10 10 10 10 10 10 10 10 10 10 10 10 9
8 8 8 8 8 8 8 9 9 9 9 9 9 9 9 10 10 10 10 10 10 10 10 10 10 10 10 10 10 10 10 10 10 10 10 10 10 9 9 9 9 9 9
7 7 7 7 8 8 8 8 8 8 9 9 9 9 9 9 9 9 9 9 9 9 9 10 10 10 10 10 10 10 10 10 9 9 9 9 9 9 9 9 9 9 9
7 7 7 7 7 7 7 7 8 8 8 8 8 8 8 8 9 9 9 9 9 9 9 9 9 9 9 9 9 9 9 9 9 9 9 9 8 8 8 8 8 8 8
6 6 6 6 6 6 7 7 7 7 7 7 7 7 7 7 8 8 8 8 8 8 8 8 8 8 9 9 9 9 9 9 9 8 8 8 8 8 8 8 8 8 8
5 5 6 6 6 6 6 6 6 6 6 6 6 6 6 6 6 7 7 7 7 7 7 8 8 8 8 8 8 8 8 8 8 8 8 8 8 8 7 7 7 7 7
5 5 5 5 5 5 5 5 5 5 6 6 6 6 6 6 6 6 6 6 7 7 7 7 7 7 8 8 8 8 8 8 8 8 8 7 7 7 7 7 7 6 6
4 4 4 4 4 4 5 5 5 5 5 5 5 5 5 5 5 5 5 6 6 6 6 7 7 7 7 7 7 7 7 7 7 7 7 7 7 7 7 6 6 6 6
4 4 4 4 4 4 4 4 4 4 4 4 4 4 5 5 5 5 5 5 5 5 6 6 6 6 6 6 6 6 7 7 7 7 7 7 6 6 6 6 6 6 5
3 3 3 3 3 3 3 3 3 3 3 3 3 4 4 4 4 4 4 4 4 4 5 5 5 5 5 6 6 6 6 6 6 6 6 6 6 6 6 6 5 5 5
2 3 2 3 2 2 2 3 3 3 3 3 3 3 3 3 3 4 4 3 3 3 4 4 4 4 5 5 5 5 5 5 5 5 5 5 5 5 5 5 5 5 5
2 2 2 2 2 2 2 2 2 2 2 2 2 2 2 3 3 3 3 3 3 3 3 3 3 4 4 4 4 4 4 5 5 5 5 5 5 4 4 4 4 4 4
1 2 2 2 2 2 2 2 2 2 2 2 2 2 2 2 2 2 2 2 2 2 2 2 3 3 3 3 3 4 4 4 4 4 4 4 4 4 4 3 3 4 3
1 1 1 1 1 1 1 1 1 1 1 1 1 1 1 1 2 2 2 2 2 2 2 2 2 2 2 3 3 3 3 3 3 3 3 3 3 3 3 3 3 3 3
1 1 1 1 1 1 1 1 1 0 0 0 0 1 1 1 1 1 1 1 1 1 1 1 1 1 2 2 2 2 2 2 2 2 2 2 2 2 2 2 2 2 2
0 0 0 1 0 1 0 0 0 0 0 0 0 0 0 0 0 0 0 1 1 1 1 1 1 1 1 1 1 1 1 1 2 2 2 2 2 1 1 2 1 1 2
-0 -0 -0 0 0 0 -0 -0 -0 -0 -0 -0 -0 -0 -0 -0 -0 -0 -0 0 0 0 0 -0 -0 0 0 0 0 0 1 1 1 1 1 1 1 1 1 1 1 1 1
-1 -1 -0 -0 -0 -1 -1 -1 -1 -1 -1 -1 -1 -1 -1 -1 -1 -1 -1 -1 -1 -1 -1 -1 -1 -1 -0 -1 -1 -0 -0 -0 -0 -0 -0 0 0 0 0 0 0 0 0
-1 -1 -1 -1 -1 -1 -1 -1 -1 -1 -1 -1 -1 -1 -1 -1 -1 -1 -1 -1 -1 -1 -1 -1 -1 -1 -1 -1 -1 -1 -1 -1 -1 -1 -1 -0 -1 -0 -0 -0 -0 -0 -0
-2 -2 -1 -1 -2 -1 -1 -1 -1 -2 -1 -2 -2 -2 -2 -2 -2 -2 -1 -1 -1 -1 -2 -2 -2 -2 -2 -2 -2 -2 -2 -2 -2 -2 -2 -1 -1 -1 -1 -1 -1 -1 -1
-2 -2 -2 -2 -2 -2 -2 -2 -2 -2 -2 -2 -2 -2 -2 -2 -2 -2 -2 -2 -2 -2 -2 -2 -2 -2 -2 -2 -2 -2 -2 -2 -2 -2 -2 -2 -2 -1 -1 -1 -1 -1 -1
-3 -3 -3 -2 -2 -2 -2 -2 -2 -2 -2 -2 -2 -2 -2 -2 -2 -2 -3 -3 -2 -2 -2 -2 -3 -3 -3 -3 -3 -3 -3 -3 -3 -3 -3 -3 -3 -2 -2 -2 -2 -2 -2
-3 -3 -3 -3 -3 -3 -3 -3 -3 -3 -3 -3 -3 -3 -3 -3 -3 -3 -3 -3 -3 -3 -3 -3 -3 -3 -3 -3 -3 -3 -3 -3 -3 -4 -3 -4 -4 -4 -3 -2 -2 -3 -3
Wind_Speed
3 3 3 4 4 4 3 3 3 3 2 3 3 3 2 2 3 3 4 4 3 3 3 3 3 2 3 3 3 2 2 2 2 2 1 1 1 1 1 1 0 1 2
3 3 3 3 4 4 4 3 2 2 2 2 2 2 2 2 2 3 3 3 2 2 2 2 2 1 2 3 3 2 2 1 1 1 1 1 1 1 1 0 1 1 2
4 3 2 2 3 4 4 3 2 2 2 2 1 1 1 2 2 2 3 3 2 2 2 2 2 1 1 2 2 2 2 1 2 2 1 1 2 2 3 1 1 1 2
5 4 2 2 4 4 3 2 2 2 2 2 2 1 1 1 1 2 3 3 2 2 1 2 2 2 1 2 2 2 2 2 2 2 2 2 2 2 3 3 2 2 3
4 4 3 3 3 3 3 2 2 1 1 2 1 1 1 1 1 1 2 2 3 2 2 2 2 2 1 1 2 2 2 2 2 2 3 3 3 2 2 2 3 4 4
5 4 3 3 3 2 2 2 2 2 1 1 1 1 1 1 1 1 0 1 2 2 2 2 2 1 1 1 1 2 2 2 1 2 2 3 3 3 3 3 3 3 4
5 4 3 3 3 2 2 2 2 2 1 1 1 1 1 1 0 0 0 1 1 2 2 2 1 1 1 1 1 2 2 2 2 2 2 3 3 4 4 3 3 4 4
4 4 4 2 2 2 2 2 2 1 1 1 0 0 1 1 1 1 1 1 0 1 2 2 1 2 2 2 1 1 2 2 3 3 3 3 4 4 4 5 5 5 5
3 3 3 3 2 2 1 1 1 1 1 1 1 0 0 1 1 1 1 0 0 0 1 1 1 2 2 2 2 1 1 3 4 4 4 4 5 5 5 5 6 6 6
3 3 3 2 2 2 2 1 1 1 0 1 1 1 1 0 0 1 1 0 0 0 1 1 1 1 2 2 1 1 1 2 3 4 4 5 5 5 5 6 6 6 6
3 3 3 2 2 1 2 2 2 2 1 1 1 1 1 1 1 1 1 1 1 0 1 1 1 2 2 2 1 1 1 2 3 3 4 5 5 5 5 5 6 6 6
1 2 2 2 2 1 1 1 1 2 1 1 1 1 0 1 1 1 1 1 2 2 1 0 1 1 2 2 1 1 1 2 3 3 4 5 5 5 5 6 6 7 7
1 2 2 2 2 1 1 1 1 1 1 1 1 1 1 1 1 1 1 2 2 2 1 0 1 2 2 2 2 3 3 3 3 3 3 3 4 5 5 5 6 7 7
2 1 1 2 2 2 2 1 1 1 1 1 1 1 1 1 1 1 1 1 1 2 1 1 0 2 2 2 3 3 4 4 4 3 3 3 4 5 5 6 6 6 7
2 1 1 1 2 1 1 1 1 1 1 1 1 1 2 1 1 1 1 1 1 2 3 1 1 1 3 3 2 3 4 4 4 4 4 4 4 5 5 6 6 6 7
2 1 1 1 2 1 1 1 1 1 1 1 1 1 2 2 1 1 1 1 1 2 3 2 1 1 2 3 3 4 4 4 4 4 4 5 5 5 5 6 6 7 7
2 1 1 1 1 1 1 1 1 1 1 1 1 2 2 2 1 1 1 1 1 1 3 3 2 1 2 2 3 3 4 4 4 5 5 5 6 6 6 6 7 7 7
2 1 1 1 1 1 1 1 2 2 1 2 2 2 2 2 2 2 2 2 2 2 2 3 2 2 3 2 2 2 3 4 4 4 5 6 6 7 7 7 6 7 7
2 1 1 1 1 1 1 2 2 2 2 2 2 2 2 2 2 2 2 2 2 2 2 2 3 2 2 2 2 2 3 3 4 4 5 5 6 8 8 7 6 6 6
2 1 1 2 1 1 1 2 2 2 2 2 2 2 2 2 3 3 2 2 2 2 2 2 3 3 2 2 1 2 2 2 3 4 5 6 7 7 7 8 7 6 6
2 1 1 1 2 1 1 1 1 2 2 2 2 2 2 2 3 3 3 2 2 2 2 2 3 3 2 2 2 2 2 3 3 2 2 4 5 5 6 6 6 6 6
2 2 1 1 1 2 2 2 1 1 1 1 2 2 2 2 3 3 4 4 3 3 3 3 3 3 4 3 2 2 2 3 3 2 3 4 3 3 4 5 5 6 7
2 2 1 1 2 2 2 2 1 1 1 1 1 1 2 2 2 1 2 3 3 4 4 4 4 4 4 3 3 3 3 3 4 3 3 4 2 3 4 5 6 5 5
2 2 2 2 2 2 3 3 2 1 1 1 1 1 1 2 2 1 1 1 2 2 3 3 3 4 4 3 3 4 4 3 2 2 2 3 2 3 4 5 6 5 6
2 2 2 2 1 2 3 3 2 1 1 1 1 1 1 2 2 2 1 1 2 3 4 4 4 5 5 5 4 2 2 1 2 2 1 1 2 3 3 3 4 5 7
2 2 2 2 2 2 2 2 2 0 0 1 1 1 2 2 2 2 1 1 2 3 2 3 3 4 4 4 4 3 3 2 2 2 1 1 1 3 4 3 2 5 7
Wind_Direction
20 19 21 17 7 13 5 1 15 12 20 35 50 63 75 86 99 108 103 111 130 151 174 186 192 190 172 164 161 152 147 144 155 164 170 197 207 213 222 277 328 360 358
23 16 17 16 9 6 358 0 13 25 12 45 57 55 44 56 93 105 108 117 139 155 167 171 186 173 178 169 158 154 146 160 159 168 167 169 178 177 175 81 30 353 345
21 20 16 9 6 1 355 6 16 44 21 29 39 59 54 55 74 94 105 106 117 158 162 169 178 187 186 191 180 181 187 198 198 198 190 202 227 224 219 223 255 311 328
19 16 16 10 6 4 6 8 11 37 30 17 21 3 39 66 87 102 97 102 111 120 152 176 167 180 198 209 209 199 206 209 207 214 218 225 241 243 228 223 250 279 285
15 19 18 8 12 21 19 1 17 38 38 21 9 359 2 15 67 84 92 110 118 125 125 140 167 175 191 240 230 221 212 203 210 221 225 225 228 243 236 237 251 261 265
16 21 25 15 22 35 17 17 20 26 32 15 352 347 336 328 46 83 143 100 115 133 136 144 138 164 204 251 267 259 240 232 234 233 239 239 227 230 240 254 268 279 275
14 20 22 23 22 30 25 23 29 30 11 30 21 337 325 288 246 267 97 109 109 121 118 123 116 111 114 257 285 279 267 265 271 268 267 261 246 242 252 257 263 273 282
17 22 25 18 17 19 28 22 33 22 353 20 73 301 310 333 315 281 237 195 185 101 113 125 114 103 84 68 7 320 293 281 279 277 275 271 267 260 254 256 265 276 285
17 28 27 18 12 23 27 13 23 38 344 320 15 146 197 233 303 297 260 185 167 168 143 110 109 104 113 90 59 15 312 300 292 284 281 279 276 264 262 265 269 272 280
8 24 21 15 13 17 8 348 16 21 26 304 322 327 257 217 203 308 304 297 132 108 66 58 78 94 106 100 91 41 333 295 296 297 293 292 284 271 272 274 276 275 277
6 15 9 17 14 18 9 358 359 4 360 331 306 310 314 313 268 209 259 292 327 349 64 65 75 77 87 95 96 12 301 287 284 298 302 305 298 289 289 287 287 283 279
341 360 354 3 1 5 17 357 349 345 338 333 323 314 244 272 283 265 250 277 285 284 291 94 91 85 81 63 47 353 307 288 285 295 306 304 298 293 291 295 298 293 286
318 316 344 338 334 348 9 13 312 299 303 309 309 298 297 279 293 292 262 273 283 283 269 240 128 97 68 47 18 354 333 309 305 310 312 309 305 299 299 308 306 304 300
296 302 332 329 329 347 345 350 305 286 289 295 309 307 285 287 296 285 257 249 289 289 267 247 38 82 49 28 14 7 352 338 326 313 317 312 309 305 301 301 302 304 306
307 320 316 322 328 323 313 324 315 312 327 316 309 305 291 277 276 275 276 223 205 260 274 275 352 30 23 17 5 2 337 320 323 323 316 316 311 312 308 298 295 298 299
310 309 326 324 310 305 317 309 304 311 327 313 303 301 293 285 285 279 256 264 250 236 267 290 299 308 357 343 348 349 332 334 320 316 321 313 305 303 303 300 293 294 294
304 288 302 315 313 313 321 295 272 263 269 288 291 288 292 292 296 295 283 260 253 235 253 283 299 336 344 332 336 339 333 327 320 308 306 317 317 305 298 299 299 294 292
307 298 297 291 299 319 317 299 287 285 266 263 270 275 284 289 283 281 280 272 266 254 237 259 286 309 305 306 321 325 327 324 307 303 308 309 311 311 303 298 297 295 294
308 314 305 281 283 293 301 292 286 283 275 265 267 262 261 258 262 269 271 263 264 270 238 249 277 290 291 306 323 317 318 317 309 307 313 312 309 308 312 311 304 301 299
304 297 297 298 292 285 286 284 282 285 283 274 267 263 263 253 249 255 260 252 247 246 248 248 264 281 285 297 307 304 311 311 314 322 317 312 308 306 306 308 306 304 305
311 295 290 299 302 281 286 297 288 286 281 282 285 277 272 264 261 259 258 248 238 231 238 247 259 280 285 295 295 299 303 312 309 319 324 319 318 313 310 307 313 318 316
304 297 300 306 294 290 292 293 295 278 281 273 284 297 285 270 281 274 271 265 252 238 241 246 257 261 273 279 295 298 301 310 304 320 331 315 320 311 315 309 309 315 323
304 293 304 304 297 283 284 294 286 287 278 263 268 294 303 309 304 291 300 302 299 281 261 249 246 257 268 273 277 287 287 289 283 291 314 306 312 302 315 310 311 315 325
304 296 286 281 285 284 298 309 303 283 262 257 254 256 275 290 300 315 309 307 306 308 288 263 247 257 266 268 252 257 265 287 291 300 309 289 308 310 319 311 311 320 328
292 287 277 271 271 275 294 311 324 282 271 275 270 258 276 272 288 308 317 298 298 301 308 298 284 282 285 285 287 271 272 262 288 300 330 303 314 322 310 302 318 328 329
284 292 296 285 263 260 289 310 312 217 270 298 300 285 280 285 283 292 284 260 276 287 301 313 303 299 295 291 288 248 222 230 273 294 329 351 311 338 323 311 332 337 334
Height
1505 1505 1505 1506 1506 1507 1507 1508 1509 1509 1510 1511 1512 1513 1514 1515 1516 1517 1518 1519 1520 1521 1522 1523 1524 1524 1525 1526 1527 1527 1528 1528 1529 1529 1529 1529 1529 1530 1530 1530 1530 1530 1530
1503 1503 1503 1504 1504 1505 1505 1506 1506 1507 1508 1508 1509 1510 1511 1512 1513 1515 1515 1516 1518 1519 1519 1520 1521 1522 1523 1524 1524 1525 1526 1526 1526 1527 1527 1527 1527 1528 1528 1528 1528 1528 1528
1501 1501 1501 1501 1502 1502 1503 1504 1504 1505 1505 1506 1506 1508 1509 1509 1510 1512 1513 1514 1515 1516 1517 1518 1519 1520 1521 1521 1522 1523 1523 1524 1524 1525 1525 1525 1525 1525 1526 1526 1526 1526 1526
1499 1499 1499 1499 1499 1500 1501 1501 1502 1502 1503 1503 1504 1505 1506 1507 1508 1509 1510 1511 1512 1513 1514 1515 1516 1517 1518 1519 1519 1520 1521 1521 1521 1522 1522 1522 1522 1523 1523 1523 1523 1523 1523
1497 1497 1497 1497 1497 1498 1498 1499 1499 1500 1500 1501 1502 1502 1503 1504 1505 1506 1507 1508 1509 1510 1511 1512 1512 1514 1515 1515 1516 1517 1518 1518 1518 1519 1519 1519 1519 1520 1520 1520 1520 1520 1520
1495 1495 1494 1495 1495 1495 1495 1496 1497 1497 1498 1498 1499 1500 1501 1501 1502 1503 1504 1505 1506 1507 1508 1509 1509 1510 1511 1512 1513 1514 1514 1515 1515 1516 1516 1516 1516 1517 1517 1517 1517 1517 1517
1493 1492 1492 1492 1492 1493 1493 1493 1494 1495 1496 1496 1497 1497 1498 1499 1500 1501 1501 1502 1503 1504 1505 1506 1506 1507 1508 1509 1510 1511 1511 1512 1512 1513 1513 1513 1513 1514 1514 1514 1514 1514 1514
1490 1490 1490 1490 1490 1490 1491 1491 1492 1492 1493 1494 1495 1495 1496 1497 1497 1498 1499 1499 1500 1501 1502 1503 1504 1504 1505 1506 1507 1508 1508 1509 1509 1509 1510 1510 1511 1510 1511 1511 1511 1511 1511
1488 1488 1488 1487 1488 1488 1488 1489 1490 1490 1491 1492 1493 1494 1494 1494 1494 1496 1495 1496 1497 1498 1499 1499 1500 1501 1502 1503 1504 1504 1505 1505 1506 1506 1506 1507 1507 1507 1507 1507 1507 1507 1507
1486 1486 1485 1485 1485 1485 1486 1486 1487 1488 1489 1489 1490 1491 1493 1492 1493 1492 1493 1494 1494 1495 1496 1497 1497 1498 1498 1499 1500 1501 1501 1502 1502 1502 1502 1503 1503 1503 1503 1503 1503 1503 1503
1484 1484 1483 1483 1483 1483 1483 1484 1484 1485 1486 1487 1488 1488 1489 1490 1490 1490 1490 1491 1492 1492 1493 1493 1494 1495 1495 1495 1496 1497 1498 1498 1498 1498 1498 1499 1499 1499 1499 1499 1499 1499 1499
1482 1481 1481 1481 1481 1481 1481 1481 1482 1483 1483 1484 1485 1486 1487 1487 1487 1488 1488 1488 1488 1489 1490 1490 1491 1492 1492 1492 1493 1494 1494 1494 1494 1494 1494 1495 1495 1495 1495 1495 1495 1495 1494
1479 1479 1479 1479 1479 1479 1479 1479 1479 1480 1481 1481 1482 1483 1484 1484 1485 1486 1486 1486 1486 1486 1487 1488 1488 1489 1489 1489 1489 1490 1490 1490 1490 1490 1490 1491 1491 1490 1490 1490 1490 1490 1490
1477 1477 1477 1477 1476 1476 1477 1477 1477 1477 1478 1479 1479 1480 1481 1481 1482 1483 1484 1484 1483 1484 1484 1485 1486 1486 1486 1486 1486 1486 1486 1486 1487 1486 1486 1486 1486 1486 1486 1485 1485 1485 1485
1474 1475 1475 1474 1474 1474 1474 1474 1474 1475 1475 1476 1476 1477 1477 1478 1479 1480 1481 1481 1482 1481 1481 1482 1483 1483 1483 1483 1483 1482 1482 1482 1482 1482 1482 1482 1482 1481 1481 1481 1481 1481 1480
1472 1472 1472 1472 1472 1472 1472 1472 1472 1472 1473 1473 1473 1474 1474 1475 1476 1476 1477 1478 1479 1479 1478 1478 1479 1479 1479 1479 1479 1479 1479 1478 1478 1478 1478 1478 1477 1477 1477 1477 1476 1476 1476
1469 1469 1469 1469 1469 1469 1469 1469 1469 1470 1470 1470 1470 1471 1471 1472 1472 1473 1474 1475 1475 1476 1475 1475 1476 1476 1476 1476 1476 1475 1475 1475 1474 1474 1474 1473 1473 1473 1472 1472 1471 1471 1471
1466 1466 1467 1466 1466 1466 1466 1466 1466 1466 1467 1467 1467 1468 1468 1469 1469 1470 1470 1471 1472 1472 1472 1471 1472 1473 1473 1473 1472 1471 1471 1471 1470 1470 1470 1469 1469 1468 1468 1467 1467 1466 1466
1463 1463 1464 1464 1463 1463 1463 1463 1464 1464 1464 1464 1464 1465 1465 1465 1466 1466 1467 1467 1468 1469 1469 1469 1469 1469 1469 1469 1468 1468 1468 1467 1467 1466 1466 1465 1465 1464 1463 1462 1462 1462 1461
1460 1460 1461 1461 1461 1461 1461 1461 1461 1461 1461 1461 1461 1462 1462 1462 1462 1463 1464 1464 1465 1465 1465 1466 1466 1466 1466 1466 1465 1464 1464 1464 1463 1462 1462 1461 1461 1460 1459 1458 1458 1457 1457
1457 1458 1458 1458 1458 1458 1458 1458 1458 1458 1458 1458 1458 1459 1459 1459 1460 1460 1461 1461 1461 1461 1462 1462 1462 1462 1462 1462 1462 1461 1461 1460 1459 1459 1458 1457 1457 1456 1455 1454 1453 1453 1453
1455 1455 1455 1455 1455 1455 1456 1456 1455 1455 1455 1455 1455 1456 1456 1457 1457 1457 1457 1458 1459 1458 1458 1459 1459 1459 1459 1459 1459 1459 1458 1457 1456 1457 1455 1453 1453 1452 1451 1450 1449 1449 1449
1452 1452 1452 1452 1452 1453 1453 1453 1453 1453 1453 1453 1453 1453 1453 1454 1454 1454 1454 1454 1455 1455 1456 1456 1456 1456 1456 1456 1455 1455 1455 1454 1453 1452 1451 1449 1449 1448 1448 1447 1446 1446 1445
1449 1449 1449 1450 1450 1450 1450 1451 1450 1450 1450 1450 1450 1451 1451 1451 1451 1451 1451 1451 1452 1452 1452 1452 1453 1452 1453 1453 1452 1452 1452 1451 1450 1449 1449 1447 1446 1445 1444 1443 1443 1442 1442
1447 1447 1447 1447 1448 1448 1448 1448 1448 1448 1448 1448 1448 1448 1449 1449 1449 1449 1449 1449 1449 1449 1449 1449 1449 1449 1449 1450 1450 1449 1448 1448 1446 1446 1446 1444 1443 1442 1441 1440 1440 1440 1439
1444 1445 1445 1445 1445 1445 1446 1446 1446 1445 1445 1446 1446 1446 1447 1446 1447 1447 1447 1446 1446 1446 1446 1446 1446 1446 1446 1445 1445 1445 1445 1444 1443 1442 1442 1442 1441 1440 1438 1437 1437 1437 1436